Temp
64 62 59 57 56 55 55 55 54 54 56 57 55 57 55 55 54 53 52 52 52 52 53 55 56 57 55 54 56 55 54 55 55 57 60 62 65 66 67 67 66 64 66
62 58 57 55 54 55 55 54 53 53 53 54 55 55 55 53 52 52 51 50 50 50 51 51 52 52 53 53 53 50 50 52 52 49 52 53 60 61 65 65 64 56 54
59 56 55 55 55 54 54 53 52 51 52 52 54 54 54 53 53 50 50 48 50 49 49 50 51 51 51 50 51 49 47 45 50 50 47 47 47 50 62 53 51 50 48
61 59 56 55 55 55 54 52 51 51 51 51 52 52 52 51 48 49 49 49 49 48 48 49 49 49 50 49 50 51 49 46 44 49 49 48 46 44 47 56 50 48 46
60 58 57 57 56 55 50 51 51 50 49 49 50 51 50 49 50 50 49 49 49 48 48 48 48 48 48 48 47 48 48 49 45 43 43 46 46 45 43 43 50 49 45
60 60 59 58 55 53 51 49 48 48 48 48 48 48 47 47 48 47 47 47 47 47 46 47 47 47 47 46 47 47 47 47 48 46 44 42 39 39 39 40 43 43 43
60 59 57 55 54 51 50 50 48 45 46 45 43 44 44 44 42 41 43 43 42 43 43 45 45 45 46 46 46 46 46 46 45 45 45 46 44 42 40 38 38 39 43
61 59 57 56 55 53 51 50 49 47 46 46 45 44 44 45 44 43 43 42 43 42 43 43 44 44 45 45 45 45 45 45 44 44 44 45 45 45 41 37 36 35 39
59 59 59 58 57 54 52 50 48 47 46 47 46 45 44 44 44 43 44 43 44 44 43 43 43 43 44 44 43 44 43 44 43 42 43 43 44 44 44 42 38 35 33
57 56 56 56 56 55 52 50 49 47 47 46 46 45 43 43 42 42 41 41 42 42 41 41 42 42 43 43 43 43 43 42 43 43 42 42 43 43 43 42 42 41 36
56 55 54 51 51 52 51 50 48 48 46 45 45 44 42 42 42 42 41 41 41 41 41 41 41 41 41 42 42 42 42 41 41 41 41 40 42 42 42 41 40 40 38
58 54 50 49 48 47 48 47 47 46 45 45 44 43 42 42 41 41 41 42 41 42 41 40 40 40 40 40 40 39 39 39 38 38 38 39 41 39 40 39 39 38 39
52 48 47 46 46 45 45 45 43 43 44 44 42 42 41 41 41 40 40 40 40 40 40 39 38 38 38 38 39 38 37 37 37 37 36 36 37 37 38 38 38 38 39
49 46 44 41 40 39 37 36 39 42 42 41 41 40 40 41 40 39 39 38 38 37 38 38 37 36 36 37 37 38 36 36 37 36 36 35 35 36 36 36 36 37 36
43 39 36 34 33 33 37 39 41 40 40 40 40 40 39 38 38 37 37 37 36 36 37 36 36 36 35 36 36 36 35 34 35 35 36 36 35 35 36 36 33 34 34
37 35 33 32 31 32 34 36 36 37 38 37 37 38 37 37 36 35 35 35 35 35 35 34 34 33 35 36 35 35 34 34 34 33 34 35 35 35 36 36 37 36 33
31 31 30 30 30 31 32 32 34 35 35 35 35 35 35 34 34 34 34 33 33 34 33 33 33 33 33 35 34 35 34 34 34 34 34 34 36 34 34 36 37 36 36
30 30 30 30 30 30 30 32 33 34 33 33 33 33 33 32 33 32 32 32 33 32 32 32 33 32 33 34 33 33 33 34 34 34 34 33 33 34 34 34 34 35 36
29 29 30 29 30 29 29 30 31 32 32 31 31 31 31 31 31 30 31 32 31 31 31 31 31 31 31 33 32 32 31 32 33 34 34 33 33 35 35 33 32 33 34
29 28 29 29 29 28 29 29 29 30 29 30 30 31 31 30 30 30 30 31 31 30 31 30 30 31 30 32 32 31 31 30 32 33 33 34 33 35 35 33 31 30 32
28 29 29 27 27 28 28 27 28 28 30 30 30 30 30 30 30 30 30 29 29 29 28 28 29 29 29 29 31 31 30 31 31 31 31 33 34 34 34 35 32 31 32
27 27 26 27 28 29 27 26 27 30 30 30 29 29 30 30 29 28 28 28 27 26 25 25 26 28 29 30 31 31 32 33 31 30 32 33 34 34 34 32 30 31 32
26 27 26 26 28 29 28 25 27 29 28 28 27 28 29 29 28 26 26 26 26 24 24 24 24 25 28 29 31 31 32 33 32 31 31 34 34 30 29 30 31 31 30
25 26 25 24 26 29 29 28 28 28 26 25 25 26 25 26 26 26 26 24 23 23 23 23 23 24 25 27 29 29 29 31 32 31 31 32 31 31 30 29 30 29 28
25 25 24 24 25 26 26 27 27 26 24 24 23 23 24 23 23 24 24 24 24 24 22 23 23 22 22 26 30 30 28 28 30 30 29 28 27 26 26 27 27 26 26
24 23 23 23 23 24 24 25 26 25 23 21 22 22 23 23 23 22 22 26 27 28 29 29 27 25 28 30 31 32 32 32 32 27 25 24 24 24 24 24 23 24 24
MSLP
1014.19 1015.46 1016.65 1017.53 1018.07 1018.51 1018.82 1019.03 1019.25 1019.38 1019.44 1019.11 1019.14 1018.80 1018.89 1019.09 1019.31 1019.50 1019.50 1019.36 1019.24 1018.98 1018.63 1018.12 1017.68 1017.47 1017.32 1017.34 1017.03 1016.68 1016.15 1015.71 1015.63 1014.37 1013.21 1012.55 1012.27 1012.09 1012.01 1012.04 1012.29 1012.00 1012.21
1013.78 1015.29 1016.30 1017.18 1017.74 1018.11 1018.57 1019.00 1019.12 1019.41 1019.65 1019.60 1019.55 1019.39 1019.38 1019.70 1019.88 1019.96 1020.08 1019.93 1019.70 1019.51 1019.08 1018.99 1018.63 1018.40 1018.02 1017.85 1017.62 1017.61 1017.21 1016.91 1016.80 1016.25 1015.00 1013.35 1012.19 1012.36 1012.09 1012.11 1012.71 1013.57 1013.82
1013.27 1014.68 1015.74 1016.61 1017.37 1017.84 1018.37 1018.88 1019.31 1019.53 1019.75 1019.82 1019.75 1019.71 1019.69 1019.73 1019.75 1020.13 1020.28 1020.48 1020.29 1020.10 1019.85 1019.51 1019.36 1019.00 1018.64 1018.58 1018.43 1018.40 1018.28 1017.85 1017.48 1017.33 1017.06 1015.65 1014.66 1014.34 1012.82 1013.80 1014.28 1014.66 1014.89
1012.83 1014.06 1015.17 1015.99 1016.72 1017.35 1018.12 1018.82 1019.34 1019.58 1019.79 1020.05 1019.74 1019.51 1019.61 1019.52 1020.30 1020.47 1020.64 1020.63 1020.65 1020.67 1020.55 1020.22 1019.84 1019.69 1019.44 1019.32 1019.08 1018.82 1018.75 1018.70 1018.29 1017.77 1017.81 1017.61 1017.19 1016.28 1015.08 1014.34 1015.15 1015.64 1015.68
1012.44 1013.39 1014.51 1015.48 1016.32 1017.17 1018.14 1018.64 1019.09 1019.57 1019.92 1019.96 1019.93 1019.93 1019.98 1020.18 1020.42 1020.48 1020.46 1020.65 1020.77 1020.76 1020.78 1020.69 1020.49 1020.27 1019.96 1019.85 1019.78 1019.49 1019.18 1019.04 1019.01 1018.89 1018.59 1018.16 1017.93 1017.78 1017.35 1016.27 1015.81 1016.09 1016.80
1012.14 1012.95 1013.98 1015.03 1016.07 1017.14 1017.94 1018.38 1018.87 1019.24 1019.79 1020.09 1020.25 1020.33 1020.46 1020.57 1020.57 1020.73 1020.59 1020.72 1020.87 1021.06 1021.11 1020.90 1020.87 1020.80 1020.59 1020.34 1020.10 1019.82 1019.77 1019.60 1019.33 1018.99 1019.20 1019.32 1019.07 1018.78 1018.55 1017.95 1017.28 1017.34 1017.61
1012.03 1012.82 1013.73 1014.64 1015.54 1016.58 1017.36 1017.96 1018.60 1019.16 1019.73 1020.28 1020.37 1020.56 1020.76 1021.02 1021.36 1021.40 1021.31 1021.23 1021.39 1021.50 1021.68 1021.39 1021.14 1020.99 1021.09 1020.72 1020.50 1020.31 1020.12 1020.13 1019.87 1019.59 1019.14 1019.14 1019.45 1019.45 1019.35 1019.07 1018.60 1018.03 1017.71
1011.67 1012.38 1013.28 1014.12 1014.91 1015.88 1016.88 1017.55 1018.23 1018.90 1019.43 1019.83 1020.39 1020.73 1020.95 1020.80 1021.14 1021.51 1021.50 1021.57 1021.61 1021.70 1021.86 1021.68 1021.54 1021.29 1021.14 1020.99 1020.74 1020.54 1020.50 1020.19 1020.20 1019.96 1019.75 1019.51 1019.42 1019.37 1019.64 1019.74 1019.50 1018.80 1018.16
1011.63 1012.39 1013.28 1014.10 1014.73 1015.53 1016.37 1017.22 1017.85 1018.47 1019.11 1019.50 1020.05 1020.45 1020.73 1020.97 1021.27 1021.56 1021.60 1021.61 1021.72 1021.78 1021.83 1021.63 1021.69 1021.60 1021.39 1021.18 1020.93 1020.77 1020.84 1020.49 1020.29 1020.28 1020.01 1019.74 1019.67 1019.62 1019.53 1019.50 1019.77 1019.58 1018.87
1011.94 1012.65 1013.30 1014.03 1014.70 1015.32 1016.22 1017.00 1017.65 1018.24 1018.97 1019.57 1020.03 1020.52 1020.95 1021.15 1021.44 1021.74 1021.75 1021.79 1021.91 1022.03 1022.02 1021.93 1021.91 1021.67 1021.44 1021.17 1020.96 1020.91 1020.95 1020.65 1020.39 1020.26 1020.28 1020.14 1019.87 1019.83 1019.76 1019.51 1019.39 1019.41 1019.47
1011.98 1012.89 1013.85 1014.90 1015.54 1015.83 1016.29 1017.05 1017.47 1018.01 1018.84 1019.59 1019.99 1020.39 1020.88 1021.27 1021.54 1021.57 1021.78 1021.83 1021.89 1021.90 1021.91 1021.89 1021.79 1021.63 1021.51 1021.25 1021.07 1020.97 1020.92 1020.86 1020.69 1020.59 1020.47 1020.34 1020.19 1019.80 1019.76 1019.69 1019.60 1019.57 1019.60
1012.10 1013.75 1015.03 1015.87 1016.44 1016.85 1017.09 1017.89 1017.88 1017.72 1019.05 1020.02 1020.37 1020.71 1020.93 1021.27 1021.43 1021.63 1021.80 1021.80 1021.78 1021.70 1021.85 1021.85 1021.77 1021.62 1021.56 1021.51 1021.31 1021.30 1021.17 1021.01 1020.90 1020.92 1020.78 1020.48 1020.35 1020.18 1019.87 1019.73 1019.76 1019.77 1019.69
1013.45 1015.05 1016.10 1016.84 1017.43 1017.90 1018.46 1018.66 1019.02 1018.59 1019.38 1020.12 1020.63 1020.91 1021.21 1021.37 1021.54 1021.73 1021.74 1021.80 1021.95 1022.04 1021.94 1021.79 1021.73 1021.60 1021.55 1021.48 1021.53 1021.43 1021.52 1021.28 1021.16 1021.18 1020.97 1020.78 1020.68 1020.47 1020.04 1019.95 1019.79 1019.80 1019.82
1014.56 1016.02 1017.18 1018.13 1018.79 1019.30 1019.85 1019.74 1019.56 1019.51 1020.11 1020.41 1020.74 1020.91 1021.22 1021.62 1021.72 1022.12 1022.06 1021.89 1022.01 1022.05 1022.15 1022.27 1021.91 1021.60 1021.65 1021.57 1021.45 1021.41 1021.40 1021.33 1021.21 1021.19 1021.11 1020.95 1020.85 1020.69 1020.33 1020.18 1020.13 1019.89 1019.89
1016.09 1017.64 1018.77 1019.59 1019.98 1020.03 1019.91 1019.80 1019.66 1019.68 1020.04 1020.29 1020.55 1020.93 1021.46 1021.94 1021.90 1022.21 1022.16 1021.87 1021.90 1022.09 1022.13 1022.15 1022.18 1021.74 1021.67 1021.51 1021.29 1021.27 1021.28 1021.21 1021.08 1021.17 1021.02 1020.92 1020.80 1020.89 1020.66 1020.40 1020.42 1020.23 1020.07
1018.55 1019.66 1020.39 1020.75 1020.96 1021.07 1020.83 1020.62 1020.48 1020.39 1020.46 1020.51 1020.66 1020.99 1021.54 1021.79 1021.90 1022.03 1022.14 1022.04 1021.95 1021.88 1021.84 1022.03 1022.00 1021.88 1021.60 1021.49 1021.57 1021.43 1021.18 1020.92 1020.89 1020.91 1020.82 1020.69 1020.63 1020.68 1020.60 1020.52 1020.31 1020.38 1020.31
1020.69 1021.07 1021.44 1021.82 1021.96 1022.03 1022.07 1021.70 1021.25 1020.98 1020.79 1020.82 1021.03 1021.28 1021.72 1021.75 1021.80 1021.81 1021.75 1021.71 1021.86 1021.95 1021.67 1021.78 1021.74 1021.59 1021.44 1021.43 1021.40 1021.20 1020.96 1020.61 1020.56 1020.49 1020.48 1020.47 1020.33 1020.52 1020.52 1020.28 1020.11 1020.17 1020.24
1021.90 1022.09 1022.25 1022.24 1022.34 1022.41 1022.28 1022.18 1022.11 1021.90 1021.64 1021.16 1021.10 1021.49 1021.81 1021.87 1021.85 1021.67 1021.46 1021.48 1021.38 1021.75 1021.50 1021.50 1021.37 1021.30 1021.17 1021.16 1021.17 1021.05 1020.75 1020.32 1020.27 1020.30 1020.30 1020.30 1020.23 1020.19 1020.21 1020.11 1019.86 1019.84 1019.89
1022.96 1022.78 1022.92 1023.00 1022.67 1022.56 1022.54 1022.18 1021.91 1021.84 1021.83 1021.90 1021.63 1021.44 1021.64 1021.88 1021.69 1021.38 1021.17 1021.17 1021.12 1021.55 1021.28 1021.19 1021.08 1020.96 1020.80 1020.80 1020.86 1020.78 1020.45 1019.98 1019.87 1019.89 1019.98 1020.04 1020.00 1019.92 1020.01 1019.95 1019.73 1019.47 1019.51
1023.71 1023.47 1023.38 1023.37 1023.22 1022.91 1022.81 1022.48 1022.15 1022.02 1021.80 1021.78 1021.95 1021.77 1021.68 1021.74 1021.51 1021.11 1020.88 1020.90 1021.24 1021.28 1021.00 1020.85 1020.77 1020.61 1020.50 1020.57 1020.43 1020.40 1020.18 1019.66 1019.41 1019.46 1019.55 1019.62 1019.81 1019.68 1019.68 1019.60 1019.52 1019.37 1019.32
1024.03 1023.88 1023.86 1023.74 1023.77 1023.37 1022.99 1022.63 1022.34 1022.05 1021.99 1022.11 1022.04 1021.76 1021.55 1021.48 1021.26 1020.95 1020.85 1020.95 1020.96 1020.91 1020.71 1020.56 1020.39 1020.32 1020.20 1020.13 1020.01 1019.93 1019.73 1019.39 1019.12 1019.02 1019.07 1019.22 1019.30 1019.42 1019.36 1019.25 1019.33 1019.27 1019.49
1024.28 1024.21 1023.98 1023.88 1023.61 1023.42 1023.10 1022.66 1022.37 1022.15 1022.15 1022.12 1021.84 1021.52 1021.33 1021.22 1021.07 1020.90 1020.78 1020.64 1020.55 1020.46 1020.36 1020.19 1020.00 1019.85 1019.66 1019.51 1019.45 1019.36 1019.16 1019.04 1018.83 1018.77 1018.70 1018.88 1018.96 1019.05 1018.99 1019.14 1019.26 1019.45 1019.61
1024.52 1024.27 1024.31 1024.07 1023.59 1023.21 1022.95 1022.60 1022.30 1022.20 1022.18 1022.03 1021.67 1021.32 1021.12 1020.97 1020.88 1020.72 1020.47 1020.32 1020.10 1019.96 1019.89 1019.76 1019.49 1019.30 1019.02 1018.94 1018.80 1018.71 1018.60 1018.50 1018.38 1018.53 1018.57 1018.56 1018.69 1019.06 1019.23 1019.29 1019.33 1019.52 1019.55
1024.98 1024.80 1024.43 1023.93 1023.49 1023.09 1022.77 1022.51 1022.34 1022.25 1022.08 1021.75 1021.46 1021.20 1020.91 1020.67 1020.53 1020.34 1020.07 1019.88 1019.67 1019.48 1019.28 1019.21 1019.07 1018.91 1018.71 1018.43 1018.28 1018.22 1018.23 1018.15 1018.00 1018.11 1018.18 1018.30 1018.51 1018.77 1018.92 1019.23 1019.27 1019.32 1019.41
1025.18 1024.87 1024.44 1023.96 1023.52 1023.15 1022.74 1022.43 1022.20 1022.03 1021.77 1021.46 1021.20 1020.94 1020.65 1020.37 1020.14 1019.87 1019.64 1019.41 1019.19 1019.11 1018.91 1018.75 1018.67 1018.53 1018.21 1017.85 1017.63 1017.57 1017.61 1017.66 1017.55 1017.53 1017.67 1017.89 1018.19 1018.58 1018.73 1018.84 1018.98 1019.17 1019.39
1025.19 1024.91 1024.56 1024.05 1023.57 1023.15 1022.69 1022.35 1022.12 1021.88 1021.59 1021.21 1020.89 1020.56 1020.17 1019.82 1019.56 1019.31 1018.97 1018.83 1018.48 1018.26 1018.02 1017.80 1017.84 1017.91 1017.65 1017.31 1016.95 1016.86 1016.83 1016.83 1016.93 1017.02 1017.02 1017.45 1017.91 1018.22 1018.51 1018.66 1018.85 1019.06 1019.30
Wind_Speed
12 11 11 9 8 6 4 1 1 3 3 1 1 1 3 3 4 5 9 9 9 11 10 8 9 8 8 9 10 9 11 8 10 8 5 5 5 7 7 6 5 6 8
13 12 12 11 9 8 5 4 2 1 2 3 1 2 2 3 4 4 6 8 9 9 8 9 8 9 7 9 10 11 8 5 7 6 8 4 3 6 5 3 3 12 10
15 14 14 12 10 9 8 5 3 1 1 2 1 2 1 1 1 4 5 8 9 9 9 9 8 8 7 6 8 9 10 6 5 8 4 5 4 7 5 11 8 10 9
13 13 13 12 12 10 7 5 4 3 1 2 1 2 2 1 2 3 3 4 7 8 9 9 9 8 7 8 8 7 6 7 6 4 7 4 4 4 5 2 7 7 10
13 13 12 12 11 9 8 7 6 4 2 1 2 1 1 2 2 1 3 4 5 8 9 9 9 8 6 7 8 8 8 5 5 5 4 4 4 3 2 5 4 5 7
12 12 12 11 10 9 9 8 7 6 4 2 2 2 2 1 0 3 2 3 4 4 8 7 7 8 7 8 7 7 7 6 5 3 4 4 3 3 3 3 3 6 5
11 11 13 12 12 13 11 9 9 7 5 4 4 2 3 2 3 2 3 3 4 4 6 7 7 6 7 7 7 6 6 6 5 5 3 1 2 2 3 3 3 3 2
10 12 12 12 12 12 11 10 9 8 7 6 5 5 4 2 2 2 2 3 3 2 4 5 6 7 7 7 6 5 5 5 5 5 5 4 3 2 1 2 3 3 2
8 9 9 9 9 10 11 10 9 8 8 7 6 5 4 3 2 3 1 1 2 3 4 5 5 6 6 5 5 4 5 5 4 4 4 4 3 3 3 1 1 2 3
6 6 6 7 6 7 8 9 9 9 8 7 6 5 4 4 3 2 1 1 1 2 3 4 5 5 5 5 5 4 4 5 3 3 4 4 3 2 2 3 3 2 4
10 8 5 3 2 4 6 8 9 8 7 7 7 6 5 5 4 3 2 2 2 3 5 5 5 5 5 6 6 5 4 5 5 4 4 4 5 4 3 2 3 3 3
8 4 3 3 4 3 0 5 6 7 5 5 5 5 6 5 4 3 2 3 5 5 5 5 5 5 6 6 7 7 7 6 5 6 6 4 4 5 3 2 3 3 3
5 4 4 6 7 7 4 2 1 3 4 5 5 5 5 5 4 3 3 4 5 6 6 6 5 5 5 6 7 5 6 6 5 5 5 5 5 5 3 4 4 3 4
4 5 7 8 9 10 8 6 3 1 3 3 4 4 4 5 3 4 4 4 5 6 7 7 6 5 6 6 6 6 6 5 5 4 4 4 5 6 5 4 4 4 4
7 7 7 6 7 6 4 3 3 3 3 5 5 5 4 3 4 5 5 5 5 6 7 7 7 6 6 6 5 6 7 7 5 6 5 4 4 7 8 5 4 4 4
9 8 7 7 7 7 5 3 1 1 2 3 4 2 4 4 4 5 6 6 6 6 7 7 7 7 6 7 8 9 8 8 6 6 6 5 6 7 8 9 8 2 4
8 8 8 7 7 7 7 5 3 2 3 2 3 4 5 5 6 6 6 6 8 7 7 8 8 8 7 9 9 11 8 8 7 7 6 6 5 3 7 8 6 5 4
8 7 6 5 4 5 5 6 6 4 4 4 3 4 6 7 6 6 6 7 7 8 8 8 8 7 7 10 10 11 9 7 7 6 6 7 7 6 6 7 6 5 5
5 4 4 5 4 4 5 5 5 5 6 7 6 5 6 7 7 7 7 7 7 9 8 8 8 9 8 11 10 10 8 8 8 6 6 7 6 9 8 8 8 6 4
6 7 7 6 6 6 7 7 7 6 7 6 6 6 6 8 9 8 7 7 8 10 7 9 8 10 8 11 11 10 7 8 6 5 6 11 9 11 9 7 6 6 4
8 8 8 7 7 7 7 7 7 8 7 7 8 8 8 9 9 8 8 9 9 9 8 9 7 8 9 9 13 12 8 7 6 5 5 5 9 9 11 11 6 4 3
10 9 9 9 8 7 7 9 10 9 8 9 9 10 9 8 7 9 9 9 9 8 8 8 7 7 8 12 12 13 14 13 7 7 4 5 8 9 12 4 4 2 4
10 9 9 11 10 9 7 10 11 10 10 11 11 11 11 10 10 10 10 8 8 7 7 7 7 6 6 6 12 13 14 15 10 5 7 9 7 3 2 3 4 3 3
12 10 11 12 12 11 10 11 11 11 11 12 12 10 10 10 9 8 8 7 7 7 7 7 7 6 6 6 5 6 6 12 11 9 6 7 6 6 3 3 5 3 3
11 11 12 12 13 13 13 12 12 11 12 12 10 9 9 9 9 9 7 7 7 8 7 6 6 6 6 7 9 8 6 6 9 9 6 5 4 4 4 4 3 2 3
13 12 13 14 14 14 13 13 12 12 11 10 9 8 8 7 7 7 7 14 18 20 21 21 15 9 16 19 15 15 16 17 17 4 2 3 5 5 4 3 3 3 4
Wind_Direction
198 177 181 180 183 191 198 164 2 11 340 321 265 336 38 43 49 37 33 22 20 15 20 10 17 14 23 17 10 359 357 360 352 308 321 309 272 253 225 214 235 254 251
185 176 186 187 193 190 188 191 171 21 8 332 9 328 6 50 45 37 38 29 29 23 23 16 17 16 7 20 17 17 359 2 5 341 302 307 318 24 307 253 310 33 35
187 190 192 194 190 192 191 188 165 139 11 339 256 221 164 182 56 32 29 27 24 26 23 25 17 16 20 15 13 21 14 357 5 355 345 332 352 330 5 57 46 41 41
190 190 192 193 194 193 176 175 175 177 134 323 271 304 330 9 57 38 41 46 37 30 23 19 23 24 17 15 6 12 15 4 7 347 6 348 0 339 318 81 67 60 41
191 188 192 193 193 179 178 175 178 174 159 153 352 314 98 98 122 88 71 53 44 40 28 21 19 19 20 16 11 7 10 12 10 5 349 345 334 15 310 302 315 72 57
187 188 185 184 185 173 185 181 180 178 164 138 71 53 72 45 134 42 45 52 47 35 31 24 18 14 11 12 3 4 8 1 353 13 15 3 355 352 334 313 339 330 61
193 187 186 187 185 189 192 186 185 178 164 156 136 111 124 85 107 41 41 38 36 23 12 10 11 10 359 358 356 357 354 357 356 358 355 351 348 320 322 303 323 311 43
206 197 197 194 194 194 193 190 186 185 183 177 173 163 177 157 128 73 90 62 47 40 359 353 350 353 350 345 342 335 338 339 348 359 356 336 359 343 333 321 319 306 286
212 211 204 205 202 198 196 194 189 192 192 187 180 178 165 163 137 139 116 62 20 344 349 347 340 335 329 337 337 333 329 322 337 345 342 344 351 353 349 251 243 316 304
206 195 200 204 210 205 194 192 195 193 187 192 187 176 164 155 156 203 209 353 344 336 333 335 323 317 317 321 320 315 333 327 345 348 334 335 344 327 356 349 336 302 289
209 194 171 159 221 220 195 196 188 189 185 193 190 176 173 181 197 203 207 261 296 307 303 303 306 310 315 316 312 319 331 328 335 348 334 333 332 339 350 0 350 327 340
207 157 110 62 50 26 80 225 193 161 180 197 194 190 186 199 204 215 249 291 299 304 304 308 305 304 303 301 299 310 319 312 320 319 317 326 335 319 336 359 345 338 345
126 107 71 50 40 33 23 35 30 97 178 186 199 204 214 210 221 224 263 277 302 305 299 291 293 300 302 298 293 293 289 300 303 307 313 320 320 306 337 340 339 339 320
119 75 61 45 36 32 17 14 5 10 192 192 216 214 230 243 254 269 285 303 301 300 293 293 291 293 291 285 281 275 294 271 293 299 297 299 305 303 323 308 307 316 313
87 59 44 39 37 32 25 24 57 91 156 200 210 227 223 255 267 289 292 293 285 288 289 285 284 281 281 276 292 302 295 277 270 281 275 270 285 296 305 305 326 305 312
44 34 31 31 29 15 6 13 48 169 203 221 228 231 237 247 263 280 288 293 287 277 273 274 277 279 276 281 282 283 285 295 253 264 272 274 267 256 258 267 278 293 288
29 27 28 23 17 11 359 351 327 232 222 235 239 236 257 267 269 273 274 277 279 280 276 271 269 271 271 273 281 283 286 287 261 264 275 276 273 241 263 252 244 245 257
15 21 17 22 23 10 1 343 335 312 288 256 257 269 268 270 271 273 276 280 276 275 271 271 275 271 269 272 280 282 277 273 265 268 272 270 268 250 255 274 252 238 225
2 4 359 348 350 6 341 319 305 298 296 292 278 261 261 269 270 271 275 278 284 270 265 264 267 267 270 272 271 273 273 255 254 258 260 257 256 258 256 262 267 246 226
354 354 347 331 333 358 337 324 314 305 293 290 286 278 273 272 274 277 283 284 271 271 268 268 268 274 272 273 267 263 264 263 251 246 243 248 244 268 257 265 288 247 215
348 351 342 335 327 329 326 311 303 296 303 294 283 280 273 274 279 285 281 274 271 269 268 270 267 265 262 263 262 253 255 259 256 246 235 225 235 245 258 255 256 251 169
343 342 332 323 320 312 310 307 304 309 302 294 287 284 282 280 281 278 276 272 269 267 267 268 268 266 260 255 251 252 250 258 256 256 243 242 246 251 257 280 142 143 166
338 336 326 315 314 310 302 300 305 312 303 294 289 288 284 279 275 273 272 271 261 254 259 264 265 264 260 244 250 249 254 258 255 247 237 235 251 119 142 197 168 217 246
328 328 322 314 311 316 314 302 301 300 294 288 288 290 285 279 271 267 262 262 260 257 254 253 259 261 263 251 243 248 254 263 258 256 254 243 238 226 231 193 218 234 261
320 321 314 311 311 313 309 308 306 301 292 289 285 283 279 275 275 269 268 263 256 252 260 260 262 260 257 246 242 242 234 233 237 232 219 205 196 212 218 226 246 266 253
324 317 314 313 312 310 306 305 304 298 293 289 284 278 279 273 270 271 268 263 263 257 257 253 240 237 250 249 256 250 246 246 259 260 170 165 198 206 236 250 243 216 234